New York, NY

3:31 PM EDT on September 27, 2016 (GMT -0400)
Central Park

Weather History for KNYC - August, 2014

Change the Weather History Date:

Monday, August 11, 2014

  Actual Average Record
Temperature  
Mean Temperature 79 °F 76 °F  
Max Temperature 87 °F 83 °F 102 °F (1944)
Min Temperature 71 °F 69 °F 56 °F (1962)
Degree Days  
Heating Degree Days 0 0  
Month to date heating degree days 0 0  
Since 1 June heating degree days 0 19  
Since 1 July heating degree days 0 0  
Cooling Degree Days 14 11  
Month to date cooling degree days 121 122  
Year to date cooling degree days 758 758  
Since 1 June cooling degree days 704 689  
Growing Degree Days 28 (Base 50)    
Moisture  
Dew Point 58 °F    
Average Humidity 54    
Maximum Humidity 73    
Minimum Humidity 34    
Precipitation  
Precipitation 0.00 in 0.14 in 2.39 in (1983)
Month to date precipitation 0.48 1.70  
Year to date precipitation 34.49 30.50  
Snow  
Snow 0.00 in 0.00 in 0.00 in (2002)
Month to date snowfall 0.0 0.0  
Since 1 July snowfall 0.0 0.0  
Snow Depth 0.00 in    
Sea Level Pressure  
Sea Level Pressure 30.12 in    
Wind  
Wind Speed 3 mph (WSW)    
Max Wind Speed 9 mph    
Max Gust Speed 19 mph    
Visibility 10 miles    
Events      
T = Trace of Precipitation, MM = Missing Value Source: NWS Daily Summary

Daily Weather History Graph

Daily Weather History Graph

Search for Another Location

Airport or City:

Trip Planner

Search our weather history database for the weather conditions in past years. The results will help you decide how hot, cold, wet, or windy it might be!

Date:

Astronomy

Aug. 11, 2014 Rise Set
Actual Time 6:02 AM EDT 7:59 PM EDT
Civil Twilight 5:32 AM EDT 8:29 PM EDT
Nautical Twilight 4:55 AM EDT 9:05 PM EDT
Astronomical Twilight 4:16 AM EDT 9:44 PM EDT
Moon 8:24 PM EDT (8/11) 7:04 AM EDT (8/11)
Length of Visible Light 14h 56m
Length of Day
13h 57m
Full, 99% of the Moon is Illuminated
Aug 11
Full
Aug 17
Last Quarter
Aug 25
New
Sep 2
First Quarter
Sep 8
Full

Hourly Weather History & Observations

Time (EDT) Temp. Heat Index Dew Point Humidity Pressure Visibility Wind Dir Wind Speed Gust Speed Precip Events Conditions
12:51 AM 75.0 °F - 57.9 °F 55% 30.12 in 10.0 mi Variable 4.6 mph - N/A   Mostly Cloudy
1:51 AM 75.0 °F - 59.0 °F 57% 30.12 in 10.0 mi West 4.6 mph - N/A   Partly Cloudy
2:51 AM 75.0 °F - 57.9 °F 55% 30.12 in 10.0 mi WSW 5.8 mph - N/A   Mostly Cloudy
3:51 AM 73.0 °F - 57.9 °F 59% 30.12 in 10.0 mi Calm Calm - N/A   Clear
4:51 AM 73.0 °F - 57.0 °F 57% 30.13 in 10.0 mi West 3.5 mph - N/A   Clear
5:51 AM 72.0 °F - 57.0 °F 59% 30.13 in 10.0 mi Calm Calm - N/A   Clear
6:51 AM 72.0 °F - 57.9 °F 61% 30.13 in 10.0 mi Calm Calm - N/A   Clear
7:51 AM 73.9 °F - 57.0 °F 55% 30.14 in 10.0 mi Calm Calm - N/A   Clear
8:51 AM 77.0 °F - 57.0 °F 50% 30.14 in 10.0 mi Calm Calm - N/A   Clear
9:51 AM 79.0 °F - 55.9 °F 45% 30.14 in 10.0 mi Calm Calm - N/A   Clear
10:51 AM 79.0 °F - 57.9 °F 48% 30.14 in 10.0 mi Calm Calm - N/A   Mostly Cloudy
11:51 AM 84.0 °F 83.3 °F 57.0 °F 40% 30.13 in 10.0 mi Variable 6.9 mph - N/A   Clear
12:51 PM 84.9 °F 83.3 °F 54.0 °F 34% 30.12 in 10.0 mi Variable 4.6 mph - N/A   Clear
1:51 PM 84.9 °F 83.6 °F 55.0 °F 36% 30.13 in 10.0 mi SSW 8.1 mph - N/A   Clear
2:51 PM 82.0 °F 81.3 °F 54.0 °F 38% 30.12 in 10.0 mi Variable 5.8 mph - N/A   Clear
3:51 PM 81.0 °F 80.7 °F 55.0 °F 41% 30.12 in 10.0 mi North - - N/A   Clear
4:51 PM 81.0 °F 80.7 °F 55.0 °F 41% 30.12 in 10.0 mi North - - N/A   Clear
5:51 PM 78.1 °F - 55.0 °F 45% 30.11 in 10.0 mi Variable 3.5 mph - N/A   Clear
6:51 PM 77.0 °F - 55.9 °F 48% 30.10 in 10.0 mi Variable 3.5 mph - N/A   Clear
7:51 PM 75.9 °F - 59.0 °F 56% 30.11 in 10.0 mi Variable 5.8 mph - N/A   Clear
8:51 PM 73.9 °F - 63.0 °F 68% 30.10 in 10.0 mi North - - N/A   Clear
9:51 PM 73.9 °F - 64.0 °F 71% 30.11 in 10.0 mi North - - N/A   Clear
10:51 PM 73.9 °F - 64.0 °F 71% 30.10 in 10.0 mi Variable 3.5 mph - N/A   Clear
11:51 PM 73.0 °F - 63.0 °F 71% 30.09 in 10.0 mi Variable 3.5 mph - N/A   Clear